Weather observations for the past three days for
Reedsburg Municipal Airport
Imperial (Metric)
Date Time (cdt) Wind (mph) Vis. (mi.) Weather Sky Cond. Temperature (ºF) Relative Humidity Wind Chill (°F) Heat Index (°F) Pressure Precipitation (in)
Air Dwpt 6 hour altimeter (in) sea level (mb) 1 hr 3 hr 6 hr
Max. Min.
24 06:15 N 3 10.00 Overcast BKN010 OVC060 63.5 63.5 100% 30.14 0.0
24 05:55 N 3 10.00 Overcast SCT010 BKN030 OVC060 63.5 63.5 100% 30.14 0.0
24 05:35 Calm 10.00 Overcast SCT008 OVC030 63.5 63.5 100% 30.14 0.0
24 05:15 Calm 10.00 Overcast BKN008 OVC030 63 63 100% 30.13 0.0
24 04:55 Calm 10.00 Overcast SCT008 OVC028 63.3 63.3 100% 30.13 0.0
24 04:35 Calm 10.00 Overcast SCT008 OVC026 63 63 100% 30.13 0.0
24 04:15 Calm 10.00 Overcast OVC026 63 63 100% 30.12 0.0
24 03:55 Calm 10.00 Overcast OVC026 63.5 63.5 100% 30.11 0.0
24 03:35 E 3 10.00 Overcast OVC024 63.5 63.5 100% 30.11 0.0
24 03:15 NE 5 10.00 Overcast OVC024 63.7 63.7 100% 30.11 0.0
24 02:55 E 5 10.00 Overcast OVC022 63.5 63.5 100% 30.1 0.0
24 02:35 E 5 10.00 Overcast OVC020 63.7 63.7 100% 30.1 0.0
24 02:15 NE 5 10.00 Overcast OVC022 63.5 63.5 100% 30.1 0.0
24 01:55 NE 5 10.00 Overcast SCT015 OVC022 63.5 63.5 100% 30.1 0.0
24 01:35 NE 5 10.00 Overcast BKN015 OVC024 63.5 63.5 100% 30.09 0.0
24 01:15 NE 5 10.00 Overcast OVC015 63.7 63.7 100% 30.09 0.0
24 00:55 NE 5 10.00 Overcast OVC011 63.3 63.3 73.6 63.3 100% 30.09 0.0
24 00:35 NE 5 10.00 Overcast OVC011 63.5 63.5 100% 30.09 0.0
24 00:15 NE 5 10.00 Mostly Cloudy BKN011 63.5 63.5 100% 30.09 0.0
23 23:55 NE 8 10.00 Mostly Cloudy BKN011 64 64 100% 30.09 0.0
23 23:35 NE 7 10.00 Mostly Cloudy BKN009 64.6 64.6 100% 30.09 0.0
23 23:15 NE 3 10.00 Mostly Cloudy SCT011 BKN027 64.9 64.9 100% 30.09 0.0
23 22:55 N 3 10.00 Overcast SCT010 BKN027 OVC033 65.5 65.5 100% 30.08 0.0
23 22:35 N 5 10.00 Overcast SCT010 BKN019 OVC030 66.2 66.2 100% 30.08 0.0
23 22:15 NE 8 10.00 Overcast BKN010 BKN016 OVC031 66.7 66.7 100% 30.08 0.0
23 21:55 NE 6 10.00 Overcast SCT014 BKN027 OVC060 67.3 66.6 98% 30.07 0.0
23 21:35 NE 7 10.00 Mostly Cloudy SCT025 SCT039 BKN070 68 65.3 91% 30.07 0.0
23 21:15 NE 7 10.00 Mostly Cloudy SCT026 SCT040 BKN100 68.4 64.9 89% 30.06 0.0
23 20:55 NE 5 10.00 Overcast SCT024 BKN033 OVC110 69.8 65.3 86% 30.05 0.0
23 20:35 NE 9 10.00 Mostly Cloudy SCT026 BKN033 BKN048 70.7 65.1 83% 30.04 0.0
23 20:15 N 5 10.00 Fair CLR 72 64.6 78% 30.03 0.0
23 19:55 NW 6 10.00 Fair CLR 72.9 64.9 76% 30.03 0.0
23 19:35 NW 3 10.00 Fair CLR 73.4 65.3 76% 30.02 0.0
23 19:15 NW 5 10.00 Partly Cloudy SCT024 73.4 64.6 74% 30.02 0.0
23 18:55 Calm 10.00 Partly Cloudy SCT024 73.8 65.3 76.3 73.6 75% 30.02 0.0
23 18:35 NW 3 10.00 Partly Cloudy SCT026 74.3 65.1 73% 30.03 0.0
23 18:15 W 3 10.00 Mostly Cloudy SCT026 BKN120 74.3 64.4 71% 30.02 0.0
23 17:55 NW 5 10.00 Partly Cloudy SCT120 74.5 64.6 71% 30.01 0.0
23 17:35 W 6 10.00 Partly Cloudy SCT120 74.7 63.9 69% 30 0.0
23 17:15 NW 5 10.00 Partly Cloudy SCT026 75.6 64.6 69% 77 29.99 0.0
23 16:55 Calm 10.00 Fair CLR 75.2 64.8 70% 77 29.99 0.0
23 16:35 NW 6 10.00 Partly Cloudy SCT026 SCT032 75 63.9 68% 77 29.99 0.0
23 16:15 NW 6 10.00 Partly Cloudy SCT028 75.4 64.2 68% 77 29.99 0.0
23 15:55 NW 8 10.00 Partly Cloudy SCT026 SCT031 75.7 64.8 69% 77 29.99 0.0
23 15:35 NW 6 10.00 Partly Cloudy SCT026 SCT042 75.6 64.9 70% 77 29.99 0.0
23 15:15 W 6 10.00 Overcast SCT028 OVC042 75.4 64.6 69% 77 29.99 0.0
23 14:55 W 8 10.00 Overcast SCT026 SCT033 OVC042 75.7 64.4 68% 78 30 0.0
23 14:35 N 7 10.00 Overcast SCT026 SCT031 OVC044 75.6 64.4 68% 77 30 0.0
23 14:15 NW 6 10.00 Overcast OVC044 75.9 64.4 68% 78 30 0.0
23 13:55 NW 8 10.00 Overcast SCT022 OVC042 75 64.9 71% 77 30 0.0
23 13:35 NW 8 10.00 Overcast SCT038 OVC044 73.8 64.8 74% 30 0.0
23 13:15 NW 7 10.00 Overcast SCT025 OVC038 73.8 64 72% 30 0.0
23 12:55 NW 7 10.00 Overcast SCT023 SCT029 OVC040 74.1 63.9 74.3 64.6 70% 30 0.0
23 12:35 NW 7 10.00 Overcast BKN023 BKN029 OVC042 72.7 63.7 73% 30 0.0
23 12:15 NW 7 10.00 Mostly Cloudy SCT023 BKN042 73.8 65.1 75% 30 0.0
23 11:55 N 8 10.00 Overcast SCT021 SCT029 OVC042 73.4 64.9 75% 30.01 0.0
23 11:35 NW 5 10.00 Overcast SCT021 BKN027 OVC034 73 65.1 76% 30.01 0.0
23 11:15 NW 7 10.00 Overcast OVC021 72.5 64.8 77% 30 0.0
23 10:55 W 6 10.00 Mostly Cloudy BKN021 BKN026 72.5 64 75% 30 0.0
23 10:35 W 6 10.00 Partly Cloudy SCT013 SCT026 72 67.1 85% 29.99 0.0
23 10:15 W 5 10.00 Mostly Cloudy SCT014 SCT022 BKN028 71.4 68 89% 29.99 0.0
23 09:55 NW 5 10.00 Overcast SCT013 OVC025 69.8 68.2 95% 29.99 0.0
23 09:35 W 6 10.00 Overcast SCT009 SCT014 OVC027 70 68.9 96% 29.99 0.0
23 09:15 NW 3 10.00 Overcast OVC009 68.4 68.4 100% 29.99 0.0
23 08:55 SW 3 10.00 Overcast OVC009 68 68 100% 29.99 0.0
23 08:35 W 5 10.00 Overcast BKN009 BKN016 OVC023 67.8 67.8 100% 29.99 0.0
23 08:15 SW 5 10.00 Overcast SCT009 BKN017 OVC022 66.7 66.7 100% 29.99 0.0
23 07:55 Calm 10.00 Overcast OVC019 66.2 66.2 100% 29.98 0.0
23 07:35 SW 3 10.00 Overcast OVC021 65.5 65.5 100% 29.97 0.0
23 07:15 W 5 10.00 Mostly Cloudy SCT019 BKN025 BKN029 64.8 64.8 100% 29.97 0.0
23 06:55 SW 3 10.00 Mostly Cloudy SCT019 BKN041 BKN095 64.6 64.6 69.3 63.5 100% 29.97 0.0
23 06:35 SW 3 10.00 Mostly Cloudy BKN039 BKN095 64.4 64.4 100% 29.97 0.0
23 06:15 S 3 10.00 Overcast SCT007 BKN039 OVC100 63.9 63.9 100% 29.97 0.0
23 05:55 W 3 7.00 Overcast SCT030 BKN038 OVC060 63.5 63.5 100% 29.97 0.0
23 05:35 Calm 3.00 Overcast SCT008 BKN041 OVC050 64 64 100% 29.97 0.0
23 05:15 SE 3 10.00 Overcast BKN060 OVC065 64.4 64.4 100% 29.97 0.0
23 04:55 Calm 10.00 Overcast BKN050 OVC090 64.9 64.9 100% 29.97 0.0
23 04:35 SW 6 10.00 Overcast SCT065 BKN090 OVC120 64.4 64.4 100% 29.97 0.0
23 04:15 SW 3 7.00 Overcast SCT035 BKN070 OVC090 64.4 64.4 100% 29.97 0.0
23 03:55 W 9 7.00 Overcast SCT035 BKN075 OVC100 64.8 64.8 100% 29.98 0.0
23 03:35 W 7 7.00 Overcast SCT034 SCT046 OVC100 65.7 64.9 98% 29.97 0.0
23 03:15 W 10 10.00 Overcast SCT034 BKN095 OVC120 67.6 64.8 91% 29.97 0.0
23 02:55 W 6 10.00 Mostly Cloudy BKN110 68.2 66.9 96% 29.96 0.0
23 02:35 SW 7 10.00 Fair CLR 68.4 67.5 97% 29.96 0.0
23 02:15 W 6 10.00 Partly Cloudy SCT050 SCT075 68.9 67.3 95% 29.96 0.0
23 01:55 SW 7 10.00 Mostly Cloudy BKN050 BKN075 69.1 68 96% 29.97 0.0
23 01:35 SW 7 10.00 Partly Cloudy SCT075 SCT090 68.4 68.2 99% 29.97 0.0
23 01:15 SW 5 10.00 Partly Cloudy SCT090 68 68 100% 29.97 0.0
23 00:55 S 5 10.00 Fair CLR 67.6 67.6 78.8 67.6 100% 29.97 0.0
23 00:35 S 3 10.00 Fair CLR 68 68 100% 29.97 0.0
23 00:20 SW 3 10.00 Fair CLR 68 67.8 99% 29.97 0.0
22 23:55 S 6 10.00 Fair CLR 68.4 67.1 96% 29.97 0.0
22 23:35 S 3 10.00 Fair CLR 68.7 66.4 92% 29.98 0.0
22 23:15 S 5 10.00 Fair CLR 68.9 66.4 92% 29.98 0.0
22 22:55 S 6 10.00 Fair CLR 68.9 66.4 92% 29.98 0.0
22 22:35 S 5 10.00 Fair CLR 69.3 66.2 90% 29.97 0.0
22 22:15 S 5 10.00 Fair CLR 69.8 66 88% 29.97 0.0
22 21:55 S 5 10.00 Fair CLR 69.8 65.7 87% 29.97 0.0
22 21:35 Calm 10.00 Fair CLR 70.9 65.3 83% 29.97 0.0
22 21:15 S 3 10.00 Fair CLR 71.8 65.1 80% 29.97 0.0
22 20:55 S 3 10.00 Fair CLR 72 65.3 80% 29.97 0.0
22 20:35 S 3 10.00 Fair CLR 72.9 65.3 77% 29.97 0.0
22 20:15 S 5 10.00 Fair CLR 73.8 65.5 75% 29.97 0.0
22 19:55 S 5 10.00 Fair CLR 75.2 65.5 72% 77 29.97 0.0
22 19:35 S 5 10.00 Fair CLR 76.8 65.5 68% 79 29.97 0.0
22 19:15 S 5 10.00 Fair CLR 77.9 64.9 64% 80 29.97 0.0
22 18:55 SW 6 10.00 Fair CLR 78.8 65.3 81.5 78.1 63% 81 29.97 0.0
22 18:35 S 7 10.00 Partly Cloudy SCT040 79.2 65.1 62% 81 29.97 0.0
22 18:15 S 6 10.00 Partly Cloudy SCT040 79.2 64.6 61% 81 29.97 0.0
22 17:55 S 6 10.00 Fair CLR 79 64.2 61% 81 29.97 0.0
22 17:35 S 5 10.00 Fair CLR 80.2 64.4 59% 82 29.97 0.0
22 17:15 S 6 10.00 Fair CLR 80.8 64.6 58% 82 29.97 0.0
22 16:55 SW 5 10.00 Partly Cloudy SCT039 81 63.7 56% 82 29.97 0.0
22 16:35 SW 6 10.00 Partly Cloudy SCT039 81.1 63.7 55% 83 29.98 0.0
22 16:15 S 6 10.00 Fair CLR 81 63.3 55% 82 29.98 0.0
22 15:55 SW 7 10.00 Fair CLR 81 64.2 57% 83 29.98 0.0
22 15:30 SW 8 10.00 Partly Cloudy SCT038 80.8 64.4 58% 82 30 0.0
22 15:15 S 8 10.00 Fair CLR 81.1 64 56% 83 30 0.0
22 14:55 S 7 10.00 Partly Cloudy SCT038 SCT048 SCT065 79.7 63.9 59% 81 30.01 0.0
22 14:35 S 6 10.00 Mostly Cloudy SCT039 BKN046 BKN065 79.2 63.5 59% 81 30.03 0.0
22 14:15 SW 3 10.00 Overcast BKN037 OVC044 79.3 63.7 59% 81 30.03 0.0
22 13:55 Calm 10.00 Overcast BKN037 OVC050 78.6 63.3 60% 80 30.04 0.0
22 13:35 Calm 10.00 Partly Cloudy SCT039 SCT050 SCT060 79 63.3 59% 81 30.04 0.0
22 13:15 W 3 10.00 Partly Cloudy SCT038 SCT050 SCT060 79 63.7 60% 81 30.05 0.0
22 12:55 S 5 10.00 Mostly Cloudy BKN036 78.8 63.9 79 61 60% 80 30.05 0.0
22 12:35 S 3 10.00 Partly Cloudy SCT034 78.3 63.9 61% 80 30.05 0.0
22 12:15 Calm 10.00 Partly Cloudy SCT034 76.5 62.4 62% 78 30.06 0.0
22 11:55 Calm 10.00 Mostly Cloudy BKN032 75.9 61.5 61% 78 30.06 0.0
22 11:35 Calm 10.00 Partly Cloudy SCT030 75.9 61.9 62% 78 30.07 0.0
22 11:15 Calm 10.00 Fair CLR 75.4 61.5 62% 77 30.07 0.0
22 10:55 SW 3 10.00 Fair CLR 75 60.8 61% 77 30.07 0.0
22 10:35 Calm 10.00 Fair CLR 74.3 60.8 63% 30.07 0.0
22 10:15 S 3 10.00 Fair CLR 74.1 60.4 62% 30.08 0.0
22 09:55 Calm 10.00 Fair CLR 72.9 59.7 64% 30.08 0.0
22 09:35 Calm 10.00 Fair CLR 72.1 56.7 58% 30.08 0.0
22 09:15 Calm 10.00 Fair CLR 70.9 58.1 64% 30.08 0.0
22 08:55 Calm 10.00 Fair CLR 69.6 59.4 70% 30.08 0.0
22 08:35 Calm 10.00 Fair CLR 68 62.8 83% 30.08 0.0
22 08:15 Calm 10.00 Fair CLR 66.6 64 92% 30.08 0.0
22 07:55 Calm 7.00 Fair CLR 64.4 64.4 100% 30.08 0.0
22 07:35 Calm 5.00 Fair CLR 62.6 62.6 100% 30.08 0.0
22 07:15 Calm 4.00 Partly Cloudy SCT075 SCT095 61.9 61.9 100% 30.08 0.0
22 06:55 Calm 5.00 Overcast BKN075 OVC095 60.8 60.8 63 59.2 100% 30.08 0.0
22 06:35 Calm 3.00 Overcast SCT075 OVC095 60.1 60.1 100% 30.08 0.0
22 06:15 Calm 5.00 Overcast OVC095 59.2 59.2 100% 30.08 0.0
22 05:55 Calm 7.00 Overcast OVC095 59.9 59.9 100% 30.08 0.0
22 05:35 Calm 5.00 Mostly Cloudy BKN095 59.4 59.4 100% 30.08 0.0
22 05:15 Calm 1.25 Sky Obscured VV007 59.5 59.5 100% 30.08 0.0
22 04:55 Calm 3.00 Fair CLR 60.1 60.1 100% 30.08 0.0
22 04:15 Calm 7.00 Fair CLR 60.8 60.8 100% 30.08 0.0
22 03:50 Calm 7.00 Fair CLR 60.4 60.4 100% 30.09 0.0
22 03:35 Calm 7.00 Fair CLR 60.8 60.8 100% 30.09 0.0
22 03:15 Calm 7.00 Fair CLR 61.3 61.3 100% 30.09 0.0
22 02:55 Calm 7.00 Fair CLR 61.9 61.9 100% 30.09 0.0
22 02:35 Calm 7.00 Fair CLR 61.7 61.7 100% 30.09 0.0
22 02:15 Calm 10.00 Fair CLR 62.6 62.6 100% 30.09 0.0
22 01:55 Calm 7.00 Fair CLR 62.6 62.6 100% 30.09 0.0
22 01:35 Calm 7.00 Fair CLR 62.6 62.6 100% 30.09 0.0
22 01:15 Calm 7.00 Fair CLR 62.4 62.4 100% 30.09 0.0
22 00:55 Calm 7.00 Fair CLR 62.8 62.8 76.1 62.8 100% 30.1 0.0
22 00:35 Calm 10.00 Fair CLR 63 63 100% 30.11 0.0
22 00:15 Calm 10.00 Fair CLR 63.1 63.1 100% 30.11 0.0
21 23:55 Calm 10.00 Partly Cloudy SCT032 63.9 63.9 100% 30.11 0.0
21 23:35 SE 3 10.00 Mostly Cloudy BKN032 63.7 63.7 100% 30.12 0.0
21 23:15 Calm 10.00 Partly Cloudy SCT032 65.7 65.7 100% 30.12 0.0
21 22:55 W 3 10.00 Fair CLR 65.8 65.3 98% 30.12 0.0
21 22:35 Calm 10.00 Fair CLR 65.3 65.3 100% 30.12 0.0
21 22:15 Calm 10.00 Fair CLR 65.3 64.8 98% 30.12 0.0
21 21:55 Calm 10.00 Partly Cloudy SCT032 66.4 62.6 88% 30.12 0.0
21 21:35 Calm 10.00 Fair CLR 66.9 62.8 87% 30.12 0.0
21 21:15 NW 3 10.00 Partly Cloudy SCT032 67.1 63 87% 30.11 0.0
21 20:55 NW 5 10.00 Partly Cloudy SCT120 68 62.6 83% 30.11 0.0
21 20:35 Calm 10.00 Mostly Cloudy SCT038 SCT044 BKN120 68.5 62.1 80% 30.11 0.0
21 20:15 Calm 10.00 Overcast SCT038 BKN085 OVC110 68.2 61.7 80% 30.11 0.0
21 19:55 Calm 10.00 Overcast SCT032 SCT048 OVC085 68 61.7 80% 30.11 0.0
21 19:35 S 5 10.00 Overcast OVC032 68.4 61.2 78% 30.11 0.0
21 19:15 S 8 10.00 Mostly Cloudy BKN032 BKN041 BKN070 70.2 61.2 73% 30.11 0.0
21 18:55 NE 7 10.00 Partly Cloudy SCT070 SCT100 76.3 65.1 81 73.6 68% 78 30.09 0.0
21 18:35 E 8 10.00 Partly Cloudy SCT100 76.5 65.7 69% 78 30.09 0.0
21 18:15 NE 6 10.00 Mostly Cloudy SCT036 SCT050 BKN110 76.3 67.1 73% 78 30.08 0.0
21 17:55 NE 6 5.00 Overcast SCT029 BKN035 OVC060 74.3 67.6 80% 30.09 0.0
21 17:35 E 8 10.00 Partly Cloudy SCT029 SCT035 SCT044 78.3 66.4 67% 80 30.08 0.0
21 17:15 N 9 10.00 Partly Cloudy SCT041 77.4 66.9 70% 79 30.09 0.0
21 16:55 NE 10 G 16 10.00 Mostly Cloudy SCT032 SCT039 BKN065 77.7 65.7 67% 80 30.09 0.0
21 16:30 N 15 G 20 10.00 Mostly Cloudy SCT030 SCT038 BKN050 77.5 66.2 68% 79 30.08 0.0
21 16:15 N 12 10.00 Partly Cloudy SCT038 80.8 64.2 57% 82 30.09 0.0
21 15:55 NE 6 10.00 Fair CLR 80.2 64.4 59% 82 30.09 0.0
21 15:35 N 7 10.00 Partly Cloudy SCT032 79.9 64.9 60% 82 30.09 0.0
21 15:15 E 5 10.00 Partly Cloudy SCT030 78.8 64 61% 81 30.11 0.0
21 14:55 N 5 10.00 Fair CLR 79.9 65.3 61% 82 30.11 0.0
21 14:35 NE 8 10.00 Partly Cloudy SCT028 77.7 65.3 66% 80 30.12 0.0
21 14:15 E 7 10.00 Partly Cloudy SCT028 SCT033 SCT040 79 65.5 63% 81 30.13 0.0
21 13:55 NE 5 10.00 Partly Cloudy SCT028 77.9 64.8 64% 80 30.13 0.0
21 13:35 NE 5 10.00 Partly Cloudy SCT026 SCT031 77 65.1 67% 79 30.14 0.0
21 13:15 NE 7 10.00 Partly Cloudy SCT023 76.1 65.1 69% 78 30.14 0.0
21 12:55 NE 5 10.00 Partly Cloudy SCT023 75.6 65.1 76.1 63.1 70% 77 30.14 0.0
21 12:35 N 7 10.00 Partly Cloudy SCT023 75 65.1 71% 77 30.14 0.0
21 12:15 NE 6 10.00 Partly Cloudy SCT021 75.7 64.8 69% 77 30.14 0.0
21 11:55 NE 6 10.00 Mostly Cloudy BKN023 75.6 65.1 70% 77 30.14 0.0
21 11:35 Calm 10.00 Mostly Cloudy SCT021 BKN027 75.2 64.9 71% 77 30.14 0.0
21 11:15 NE 6 10.00 Mostly Cloudy BKN021 BKN027 75.2 65.1 71% 77 30.14 0.0
21 10:55 NE 6 10.00 Overcast OVC021 73.6 64.9 74% 30.15 0.0
21 10:35 NE 6 10.00 Mostly Cloudy BKN021 73.9 64.9 74% 30.15 0.0
21 10:15 E 5 10.00 Mostly Cloudy SCT019 BKN065 73.6 64.4 73% 30.15 0.0
21 09:55 NE 5 10.00 Partly Cloudy SCT065 SCT110 73 64.4 74% 30.15 0.0
21 09:35 Calm 10.00 Partly Cloudy SCT065 SCT110 73 64.6 75% 30.14 0.0
21 09:15 Calm 10.00 Fair CLR 71.8 63.9 76% 30.14 0.0
21 08:55 N 6 10.00 Partly Cloudy SCT060 71.4 63.5 76% 30.14 0.0
21 08:35 N 6 10.00 Partly Cloudy SCT060 70.2 63.1 79% 30.14 0.0
21 08:15 NE 7 10.00 Fair CLR 68.7 64 85% 30.14 0.0
21 07:55 N 7 10.00 Fair CLR 68.4 64.6 88% 30.14 0.0
21 07:35 Calm 10.00 Partly Cloudy SCT070 SCT090 67.1 65.3 94% 30.14 0.0
21 07:15 Calm 10.00 Partly Cloudy SCT070 SCT090 64.2 64.2 100% 30.13 0.0
21 06:55 Calm 10.00 Partly Cloudy SCT070 SCT090 63 63 65.3 61.5 100% 30.13 0.0
21 06:35 Calm 10.00 Partly Cloudy SCT065 SCT075 63.3 63.3 100% 30.13 0.0
Date Time (cdt) Wind (mph) Vis. (mi.) Weather Sky Cond. Air Dwpt Max. Min. Relative Humidity Wind Chill (°F) Heat Index (°F) altimeter (in) sea level (mb) 1 hr 3 hr 6 hr
6 hour
Temperature (ºF) Pressure Precipitation (in)